Location: Antist
(43.1184°N, 0.1270°E)
Time: 12:59:31
(UTC+00:00)

Cosmos 1980 - Pass Details

Date: 19 January 2020
Orbit: 838 x 849 km, 71.0° (Epoch: 20 February)

Event Time Altitude Azimuth Distance (km) Brightness Sun altitude
Rises 18:53:16 0° 333° (NNW) 3,420 7.1 -21.4°
Reaches altitude 10° 18:55:44 10° 331° (NNW) 2,481 6.4 -21.9°
Maximum altitude 19:01:23 69° 249° (WSW) 908 4.0 -22.9°
Drops below altitude 10° 19:07:01 10° 167° (SSE) 2,465 6.0 -23.9°
Sets 19:09:27 0° 165° (SSE) 3,395 6.8 -24.4°
